Regional Weather Roundup
Issued by NWS Northern Indiana

Home | Current Version | Previous Version | Graphics & Text | Print | Product List | Glossary On
Versions: 1 2 3 4 5 6 7 8 9 10 11 12 13 14 15 16 17 18 19 20 21 22 23 24 25 26 27 28 29 30 31 32 33 34 35 36 37 38 39 40 41 42 43 44 45 46 47 48 49 50
221
ASUS43 KIWX 250810
RWRIWX

KIWX WEATHER ROUNDUP
NATIONAL WEATHER SERVICE NORTHERN INDIANA
400 AM EDT SUN SEP 25 2016

NOTE: "FAIR" INDICATES FEW OR NO CLOUDS BELOW 12,000 FEET WITH NO
SIGNIFICANT WEATHER AND/OR OBSTRUCTIONS TO VISIBILITY.

* THESE STATIONS ARE NOT UNDER NWS QUALITY CONTROL. THEY ALSO MAY NOT
  REPORT WEATHER SUCH AS PRECIPITATION OR FOG.

INZ001>027-250900-
NORTHERN INDIANA

CITY           SKY/WX    TMP DP  RH WIND       PRES   REMARKS
GARY*          CLEAR     67  61  81 SE6       30.12F
VALPARAISO     CLEAR     60  58  92 E5        30.15S
MICHIGAN CITY* MOCLDY    63  57  82 MISG      30.15S
LAPORTE*       CLEAR     63  63 100 SE5       30.16S
KNOX*          CLEAR     61  41  48 SE6       30.15S
SOUTH BEND     CLEAR     61  55  81 SE9       30.16F
GOSHEN         CLEAR     60  52  74 SE8       30.17F
MONTICELLO*    CLEAR     63  56  77 E6        30.14R
LOGANSPORT*    CLEAR     59  55  88 E8        30.15F
ROCHESTER*     CLEAR     63  55  77 E8        30.16S
WARSAW*        CLEAR     59  50  72 SE6       30.17F
ANGOLA*          N/A     57  46  67 SE6       30.19F
FORT WAYNE     CLEAR     58  51  78 E7        30.18F
HUNTINGTON*    CLEAR     58  53  85 E6        30.16F
PERU/GRISSOM   CLEAR     61  55  78 E7        30.14S
MARION*        CLEAR     59  54  82 E6        30.16F

$$
INZ028>050-250900-
CENTRAL INDIANA

CITY           SKY/WX    TMP DP  RH WIND       PRES   REMARKS
LAFAYETTE      CLEAR     64  61  90 E8        30.12S
MUNCIE*        CLEAR     60  55  83 E6        30.16F
INDIANAPOLIS   CLEAR     68  61  78 E9        30.11F

$$
MIZ043>046-050>051-056>058-064>065-071>073-077>080-250900-
SOUTHWEST LOWER MICHIGAN

CITY           SKY/WX    TMP DP  RH WIND       PRES   REMARKS
BATTLE CREEK   CLEAR     57  53  86 E5        30.19F
BENTON HARBOR  CLEAR     61  54  77 SE9       30.15S
COLDWATER*     CLEAR     55  54  94 E5        30.18F
HILLSDALE*     CLEAR     52  46  82 E3        30.19F HAZE
HOLLAND        CLEAR     56  52  86 E6        30.18S
GRAND RAPIDS   CLEAR     53  48  83 E7        30.19F
KALAMAZOO      CLEAR     56  52  86 CALM      30.18F
STURGIS*       CLEAR     58  52  80 SE7       30.17F
THREE RIVERS*  FAIR      59  54  84 SE5       30.17F

$$
OHZ001>008-015>018-024>025-250900-
NORTHWEST OHIO

CITY           SKY/WX    TMP DP  RH WIND       PRES   REMARKS
WAUSEON*       FAIR      52  50  93 CALM      30.20F
DEFIANCE       CLEAR     56  51  84 CALM      30.19F
FINDLAY        CLEAR     56  46  69 E7        30.19F
TOLEDO EXPRESS CLEAR     52  52 100 CALM      30.20F
TOLEDO METCALF CLEAR     55  49  80 SE6       30.21F
LIMA           CLEAR     54  52  93 E5        30.18F

$$
AND FOR LAKE MICHIGAN COASTAL AND OPEN LAKE BUOY OBSERVATIONS

STATION/POSITION TEMP    WIND        PRES    VSBY  WAVE
                 AIR SEA DIR/SP/G                  HT/PER
                 (F)     (DEG/KT/KT) (MB)    (MI)  (FT/S)
CALUMET HARBOR    67     140/  7/ 11 1019.3F
MICHIGAN CITY     65     110/ 11/ 14   N/A
BURNS HARBOR      66     140/ 13/ 19 1020.7S
SAINT JOSEPH      62      CALM  /  6 1021.3
SOUTH LAKE BUOY   68 72  130/ 17/ 19 1019.7F         3/ 5
4 MI NW BRIDGMAN  63 67  120/ 12/ 16 1020.6          1
MICHIGAN CITY     65 68  150/ 12/ 16   N/A           1/ 2

$$
&&




USA.gov is the U.S. government's official web portal to all federal, state and local government web resources and services.